DW8947 Weather Reports


time (UTC)temp
C
wind
direction
speed
KPH
gust
KPH
rain 1hr
cm
rain 24hr
cm
rain mn
cm
humidity
%
barometer
mb
20260906084203 12 7 0.0 3.2 0.00 0.00 0.00 88 1014.6
20260906083704 12 353 0.0 3.2 0.00 0.00 0.00 88 1014.6
20260906082704 12 353 0.0 3.2 0.00 0.00 0.00 88 1014.7
20260906081204 13 352 0.0 3.2 0.00 0.00 0.00 88 1014.7
20260906080204 13 356 0.0 3.2 0.00 0.00 0.00 88 1014.7
20260906075205 13 158 0.0 3.2 0.00 0.00 0.00 88 1014.7
20260906074704 13 158 0.0 3.2 0.00 0.00 0.00 87 1014.7
20260906073704 13 158 0.0 3.2 0.00 0.00 0.00 87 1014.8
20260906072704 13 63 0.0 3.2 0.00 0.00 0.00 86 1014.7
20260906072204 13 63 0.0 3.2 0.00 0.00 0.00 85 1014.8
20260906071704 13 63 0.0 3.2 0.00 0.00 0.00 84 1014.8
20260906071204 13 25 0.0 3.2 0.00 0.00 0.00 84 1014.8
20260906070204 13 25 0.0 3.2 0.00 0.00 0.00 84 1014.7
20260906065704 13 25 0.0 3.2 0.00 0.00 0.00 83 1014.8
20260906064704 13 25 0.0 3.2 0.00 0.00 0.00 83 1014.9
20260906062204 14 50 0.0 3.2 0.00 0.00 0.00 82 1014.9
20260906061704 14 50 0.0 3.2 0.00 0.00 0.00 82 1014.9
20260906055704 14 25 0.0 3.2 0.00 0.00 0.00 81 1015.1
20260906054704 15 25 0.0 3.2 0.00 0.00 0.00 80 1015.1
20260906054204 15 25 0.0 3.2 0.00 0.00 0.00 80 1015.2
20260906052704 15 25 0.0 3.2 0.00 0.00 0.00 79 1015.1
20260906052204 15 25 0.0 3.2 0.00 0.00 0.00 79 1015.1
20260906050703 15 25 0.0 3.2 0.00 0.00 0.00 78 1015.1
20260906045704 15 25 0.0 3.2 0.00 0.00 0.00 77 1015.1
20260906044204 16 48 0.0 3.2 0.00 0.00 0.00 76 1015.2
20260906041704 16 156 0.0 3.2 0.00 0.00 0.00 74 1015.3
20260906041204 16 356 0.0 3.2 0.00 0.00 0.00 75 1015.4
20260906040204 16 354 0.0 3.2 0.00 0.00 0.00 74 1015.5
20260906035704 16 43 0.0 3.2 0.00 0.00 0.00 74 1015.5
20260906035204 16 141 0.0 3.2 0.00 0.00 0.00 74 1015.5
20260906034704 16 82 0.0 3.2 0.00 0.00 0.00 74 1015.6
20260906033704 16 19 0.0 3.2 0.00 0.00 0.00 74 1015.5
20260906033204 17 19 0.0 3.2 0.00 0.00 0.00 72 1015.4
20260906032704 17 35 0.0 3.2 0.00 0.00 0.00 72 1015.4
20260906032204 17 48 0.0 3.2 0.00 0.00 0.00 73 1015.4
20260906031203 17 48 0.0 3.2 0.00 0.00 0.00 72 1015.3
20260906030704 17 48 0.0 3.2 0.00 0.00 0.00 71 1015.3
20260906024203 17 48 0.0 0.0 0.00 0.00 0.00 66 1015.1
20260906023704 17 48 0.0 3.2 0.00 0.00 0.00 66 1015.1
20260906021204 17 48 0.0 0.0 0.00 0.00 0.00 64 1015.0
20260906020204 17 48 0.0 0.0 0.00 0.00 0.00 62 1014.9
20260906015704 18 48 0.0 0.0 0.00 0.00 0.00 61 1015.0
20260906015204 18 48 0.0 0.0 0.00 0.00 0.00 62 1015.0
20260906012704 18 48 0.0 0.0 0.00 0.00 0.00 63 1015.0
20260906012204 18 48 0.0 0.0 0.00 0.00 0.00 62 1015.0
20260906011703 18 48 0.0 0.0 0.00 0.00 0.00 62 1014.9
20260906011204 18 48 0.0 0.0 0.00 0.00 0.00 63 1014.8
20260906010204 19 48 0.0 3.2 0.00 0.00 0.00 64 1014.8
20260906005204 18 48 0.0 1.6 0.00 0.00 0.00 65 1014.9
20260906004703 18 48 0.0 3.2 0.00 0.00 0.00 63 1014.8
20260906002703 19 17 0.0 1.6 0.00 0.00 0.00 62 1014.6
20260906002203 19 17 0.0 3.2 0.00 0.00 0.00 63 1014.6
20260906001705 20 17 0.0 3.2 0.00 0.00 0.00 61 1014.6
20260905233705 19 333 0.0 3.2 0.00 0.00 0.00 59 1014.7
20260905233205 19 63 0.0 3.2 0.00 0.00 0.00 60 1014.8
20260905231705 19 333 0.0 0.0 0.00 0.00 0.00 63 1014.9
20260905230705 19 3 0.0 3.2 0.00 0.00 0.00 64 1015.0
20260905225705 19 330 0.0 3.2 0.00 0.00 0.00 60 1015.0
20260905225205 19 119 0.0 1.6 0.00 0.00 0.00 65 1015.0
20260905224205 19 153 1.6 3.2 0.00 0.00 0.00 61 1015.0
20260905223205 19 177 0.0 3.2 0.00 0.00 0.00 59 1015.1
20260905222705 19 210 0.0 3.2 0.00 0.00 0.00 58 1015.1
20260905222205 19 227 0.0 3.2 0.00 0.00 0.00 61 1015.1
20260905221705 19 209 0.0 3.2 0.00 0.00 0.00 56 1015.1
20260905221205 19 173 1.6 3.2 0.00 0.00 0.00 59 1015.2
20260905220205 19 227 0.0 1.6 0.00 0.00 0.00 57 1015.3
20260905214205 19 209 1.6 1.6 0.00 0.00 0.00 61 1015.3
20260905213205 18 202 1.6 3.2 0.00 0.00 0.00 61 1015.4
20260905212705 19 272 1.6 3.2 0.00 0.00 0.00 63 1015.5
20260905210705 18 81 0.0 3.2 0.00 0.00 0.00 67 1015.6
20260905210205 19 140 1.6 3.2 0.00 0.00 0.00 68 1015.6
20260905205205 19 153 0.0 3.2 0.00 0.00 0.00 65 1015.7
20260905204705 20 155 0.0 3.2 0.00 0.00 0.00 66 1015.6
20260905202705 20 235 1.6 3.2 0.00 0.00 0.00 61 1015.8
20260905202205 21 67 1.6 3.2 0.00 0.00 0.00 64 1015.8
20260905201705 21 12 0.0 3.2 0.00 0.00 0.00 62 1015.8
20260905195705 20 58 3.2 4.8 0.00 0.00 0.00 63 1016.0
20260905195205 20 81 1.6 4.8 0.00 0.00 0.00 65 1016.0
20260905194705 20 320 0.0 3.2 0.00 0.00 0.00 67 1016.0
20260905194205 20 196 0.0 3.2 0.00 0.00 0.00 67 1016.1
20260905192704 19 132 1.6 1.6 0.00 0.00 0.00 70 1016.2
20260905192205 19 127 0.0 3.2 0.00 0.00 0.00 71 1016.1
20260905191205 18 14 0.0 3.2 0.00 0.00 0.00 77 1016.2
20260905184705 16 54 0.0 3.2 0.00 0.00 0.00 81 1016.4
20260905182205 16 169 0.0 3.2 0.00 0.00 0.00 84 1016.6
20260905181705 16 169 0.0 3.2 0.00 0.00 0.00 84 1016.6
20260905180705 15 117 0.0 3.2 0.00 0.00 0.00 85 1016.7
20260905174704 14 133 0.0 3.2 0.00 0.00 0.00 88 1016.9
20260905174204 14 133 0.0 3.2 0.00 0.00 0.00 88 1016.9
20260905172705 14 144 0.0 3.2 0.00 0.00 0.00 89 1016.8
20260905172205 14 152 0.0 0.0 0.00 0.00 0.00 90 1016.8
20260905165705 14 152 0.0 3.2 0.00 0.00 0.00 90 1016.7
20260905165205 14 152 0.0 3.2 0.00 0.00 0.00 91 1016.7
20260905164705 14 152 0.0 0.0 0.00 0.00 0.00 91 1016.6
20260905164205 14 152 0.0 3.2 0.00 0.00 0.00 91 1016.6
20260905163705 14 152 0.0 0.0 0.00 0.00 0.00 91 1016.6
20260905162705 13 152 0.0 3.2 0.00 0.00 0.00 92 1016.6
20260905161204 13 152 0.0 3.2 0.00 0.00 0.00 95 1016.5
20260905160705 13 152 0.0 3.2 0.00 0.00 0.00 95 1016.5
20260905160205 12 152 0.0 0.0 0.00 0.00 0.00 95 1016.4
20260905155705 12 152 0.0 3.2 0.00 0.00 0.00 95 1016.4
20260905155204 12 152 0.0 3.2 0.00 0.00 0.00 95 1016.4
20260905154705 12 152 0.0 0.0 0.00 0.00 0.00 95 1016.4
20260905154205 12 152 0.0 3.2 0.00 0.00 0.00 95 1016.4
20260905153705 12 152 0.0 0.0 0.00 0.00 0.00 95 1016.4
20260905152205 12 152 0.0 1.6 0.00 0.00 0.00 95 1016.3
20260905150205 12 152 0.0 0.0 0.00 0.00 0.00 94 1016.1
20260905145705 12 152 0.0 3.2 0.00 0.00 0.00 95 1016.1
20260905142705 11 73 0.0 3.2 0.00 0.00 0.00 94 1016.0
20260905141205 11 73 0.0 3.2 0.00 0.00 0.00 94 1015.9
20260905134705 11 73 0.0 0.0 0.00 0.00 0.00 93 1015.8
20260905133704 11 73 0.0 0.0 0.00 0.00 0.00 93 1015.8
20260905132705 11 73 0.0 0.0 0.00 0.00 0.00 94 1015.8
20260905130205 11 73 0.0 0.0 0.00 0.00 0.00 93 1015.7
20260905124704 11 73 0.0 0.0 0.00 0.00 0.00 93 1015.5
20260905123705 11 73 0.0 0.0 0.00 0.00 0.00 93 1015.4
20260905122705 11 73 0.0 0.0 0.00 0.00 0.00 93 1015.4
20260905121705 11 73 0.0 3.2 0.00 0.00 0.00 93 1015.4
20260905115704 11 73 0.0 0.0 0.00 0.00 0.00 92 1015.4
20260905115204 11 73 0.0 0.0 0.00 0.00 0.00 92 1015.4
20260905114705 12 73 0.0 0.0 0.00 0.00 0.00 92 1015.3
20260905112704 12 73 0.0 0.0 0.00 0.00 0.00 92 1015.1
20260905111705 12 73 0.0 3.2 0.00 0.00 0.00 92 1015.2
20260905110704 12 73 0.0 0.0 0.00 0.00 0.00 91 1015.2
20260905110204 12 73 0.0 0.0 0.00 0.00 0.00 91 1015.2
20260905105705 12 73 0.0 3.2 0.00 0.00 0.00 91 1015.2
20260905105204 12 73 0.0 3.2 0.00 0.00 0.00 91 1015.2
20260905104705 12 73 0.0 3.2 0.00 0.00 0.00 91 1015.3
20260905104205 12 73 0.0 3.2 0.00 0.00 0.00 91 1015.2
20260905103705 12 73 0.0 0.0 0.00 0.00 0.00 91 1015.3
20260905102704 12 73 0.0 3.2 0.00 0.00 0.00 92 1015.2
20260905102205 12 73 0.0 3.2 0.00 0.00 0.00 92 1015.2
20260905101204 12 73 0.0 3.2 0.00 0.00 0.00 92 1015.1
20260905100705 12 73 0.0 3.2 0.00 0.00 0.00 92 1015.1
20260905095705 12 73 0.0 0.0 0.00 0.00 0.00 91 1015.1
20260905094706 12 73 0.0 3.2 0.00 0.00 0.00 91 1015.1
20260905094204 12 73 0.0 0.0 0.00 0.00 0.00 91 1015.1
20260905093205 12 73 0.0 0.0 0.00 0.00 0.00 91 1015.0
20260905091705 12 73 0.0 0.0 0.00 0.00 0.00 91 1014.9
20260905091204 12 73 0.0 0.0 0.00 0.00 0.00 91 1014.9
20260905090705 12 73 0.0 0.0 0.00 0.00 0.00 91 1014.8
20260905085705 12 73 0.0 3.2 0.00 0.00 0.00 91 1014.8